Time,TemperatureF,DewpointF,PressureIn,WindDirection,WindDirectionDegrees,WindSpeedMPH,WindSpeedGustMPH,Humidity,HourlyPrecipIn,Conditions,Clouds,dailyrainin,SoftwareType,DateUTC
2013-12-28 00:13:00,36.0,32.0,30.17,SW,220,6.0,10.0,84,0.00,,,0.00,,2013-12-28 05:13:00,
2013-12-28 00:22:00,36.0,32.0,30.16,SW,229,5.0,11.0,84,0.00,,,0.00,,2013-12-28 05:22:00,
2013-12-28 00:43:00,36.0,32.0,30.16,WSW,242,6.0,13.0,84,0.00,,,0.00,,2013-12-28 05:43:00,
2013-12-28 00:53:00,36.0,32.0,30.16,WSW,240,6.0,13.0,85,0.00,,,0.00,,2013-12-28 05:53:00,
2013-12-28 01:22:00,36.0,32.0,30.15,WSW,244,6.0,11.0,85,0.00,,,0.00,,2013-12-28 06:22:00,
2013-12-28 01:42:00,36.0,32.0,30.14,SW,219,6.0,13.0,85,0.00,,,0.00,,2013-12-28 06:42:00,
2013-12-28 01:52:00,36.0,32.0,30.15,SW,236,6.0,11.0,85,0.00,,,0.00,,2013-12-28 06:52:00,
2013-12-28 02:22:00,36.0,32.0,30.14,WSW,242,5.0,11.0,86,0.00,,,0.00,,2013-12-28 07:22:00,
2013-12-28 02:42:00,35.0,31.0,30.14,WSW,242,5.0,10.0,86,0.00,,,0.00,,2013-12-28 07:42:00,
2013-12-28 02:52:00,35.0,31.0,30.14,West,267,4.0,10.0,86,0.00,,,0.00,,2013-12-28 07:52:00,
2013-12-28 03:12:00,35.0,31.0,30.13,WSW,241,5.0,9.0,86,0.00,,,0.00,,2013-12-28 08:12:00,
2013-12-28 03:22:00,35.0,31.0,30.13,SW,222,3.0,9.0,86,0.00,,,0.00,,2013-12-28 08:22:00,
2013-12-28 03:42:00,35.0,31.0,30.13,SW,236,3.0,10.0,86,0.00,,,0.00,,2013-12-28 08:42:00,
2013-12-28 03:52:00,36.0,32.0,30.13,WSW,245,4.0,9.0,86,0.00,,,0.00,,2013-12-28 08:52:00,
2013-12-28 04:11:00,35.0,31.0,30.13,West,259,3.0,9.0,86,0.00,,,0.00,,2013-12-28 09:11:00,
2013-12-28 04:22:00,35.0,32.0,30.13,WSW,254,4.0,6.0,87,0.00,,,0.00,,2013-12-28 09:22:00,
2013-12-28 04:43:00,35.0,31.0,30.12,SSW,205,3.0,9.0,86,0.00,,,0.00,,2013-12-28 09:43:00,
2013-12-28 04:53:00,35.0,31.0,30.13,WSW,238,3.0,7.0,86,0.00,,,0.00,,2013-12-28 09:53:00,
2013-12-28 05:12:00,35.0,31.0,30.13,WNW,286,5.0,8.0,86,0.00,,,0.00,,2013-12-28 10:12:00,
2013-12-28 05:23:00,35.0,31.0,30.12,West,259,4.0,9.0,86,0.00,,,0.00,,2013-12-28 10:23:00,
2013-12-28 05:43:00,36.0,32.0,30.12,SW,232,4.0,10.0,85,0.00,,,0.00,,2013-12-28 10:43:00,
2013-12-28 05:53:00,36.0,32.0,30.12,WSW,247,5.0,10.0,84,0.00,,,0.00,,2013-12-28 10:53:00,
2013-12-28 06:12:00,36.0,32.0,30.14,WSW,251,6.0,11.0,85,0.00,,,0.00,,2013-12-28 11:12:00,
2013-12-28 06:22:00,36.0,32.0,30.14,SW,234,6.0,11.0,85,0.00,,,0.00,,2013-12-28 11:22:00,
2013-12-28 06:43:00,36.0,32.0,30.15,SW,232,6.0,12.0,85,0.00,,,0.00,,2013-12-28 11:43:00,
2013-12-28 06:52:00,36.0,32.0,30.15,WSW,242,5.0,10.0,85,0.00,,,0.00,,2013-12-28 11:52:00,
2013-12-28 07:12:00,36.0,32.0,30.15,SW,214,6.0,11.0,85,0.00,,,0.00,,2013-12-28 12:12:00,
2013-12-28 07:23:00,36.0,32.0,30.15,WSW,238,5.0,9.0,85,0.00,,,0.00,,2013-12-28 12:23:00,
2013-12-28 07:42:00,36.0,32.0,30.16,SW,229,5.0,9.0,85,0.00,,,0.00,,2013-12-28 12:42:00,
2013-12-28 07:52:00,35.0,31.0,30.16,SW,223,3.0,9.0,86,0.00,,,0.00,,2013-12-28 12:52:00,
2013-12-28 08:22:00,35.0,32.0,30.16,SW,233,3.0,7.0,87,0.00,,,0.00,,2013-12-28 13:22:00,
2013-12-28 08:42:00,34.0,31.0,30.15,WSW,250,1.0,5.0,87,0.00,,,0.00,,2013-12-28 13:42:00,
2013-12-28 08:52:00,35.0,32.0,30.15,West,267,3.0,7.0,87,0.00,,,0.00,,2013-12-28 13:52:00,
2013-12-28 09:22:00,35.0,31.0,30.15,West,267,2.0,7.0,86,0.00,,,0.00,,2013-12-28 14:22:00,
2013-12-28 09:42:00,36.0,32.0,30.16,WSW,248,2.0,5.0,86,0.00,,,0.00,,2013-12-28 14:42:00,
2013-12-28 09:53:00,37.0,33.0,30.16,SW,217,3.0,5.0,85,0.00,,,0.00,,2013-12-28 14:53:00,
2013-12-28 10:12:00,38.0,34.0,30.16,WSW,237,3.0,8.0,84,0.00,,,0.00,,2013-12-28 15:12:00,
2013-12-28 10:22:00,38.0,33.0,30.16,WSW,240,4.0,8.0,83,0.00,,,0.00,,2013-12-28 15:22:00,
2013-12-28 10:44:00,39.0,34.0,30.15,WSW,246,4.0,9.0,81,0.00,,,0.00,,2013-12-28 15:44:00,
2013-12-28 10:53:00,40.0,34.0,30.16,WSW,250,4.0,7.0,80,0.00,,,0.00,,2013-12-28 15:53:00,
2013-12-28 11:13:00,41.0,35.0,30.16,SW,220,4.0,8.0,79,0.00,,,0.00,,2013-12-28 16:13:00,
2013-12-28 11:23:00,41.0,35.0,30.15,SW,219,5.0,9.0,78,0.00,,,0.00,,2013-12-28 16:23:00,
2013-12-28 11:43:00,42.0,35.0,30.14,SW,223,5.0,8.0,77,0.00,,,0.00,,2013-12-28 16:43:00,
2013-12-28 11:53:00,43.0,36.0,30.14,WSW,241,6.0,12.0,75,0.00,,,0.00,,2013-12-28 16:53:00,
2013-12-28 12:22:00,44.0,37.0,30.12,WSW,244,7.0,12.0,75,0.00,,,0.00,,2013-12-28 17:22:00,
2013-12-28 12:52:00,45.0,37.0,30.11,SSW,203,5.0,11.0,73,0.00,,,0.00,,2013-12-28 17:52:00,
2013-12-28 13:12:00,46.0,37.0,30.09,WSW,248,6.0,10.0,72,0.00,,,0.00,,2013-12-28 18:12:00,
2013-12-28 13:22:00,46.0,37.0,30.09,SSW,198,4.0,10.0,72,0.00,,,0.00,,2013-12-28 18:22:00,
2013-12-28 13:42:00,46.0,37.0,30.08,South,186,5.0,12.0,71,0.00,,,0.00,,2013-12-28 18:42:00,
2013-12-28 13:52:00,47.0,38.0,30.07,SW,215,6.0,11.0,70,0.00,,,0.00,,2013-12-28 18:52:00,
2013-12-28 14:12:00,47.0,38.0,30.06,SW,214,4.0,9.0,71,0.00,,,0.00,,2013-12-28 19:12:00,
2013-12-28 14:22:00,47.0,37.0,30.06,SSW,206,6.0,10.0,69,0.00,,,0.00,,2013-12-28 19:22:00,
2013-12-28 14:42:00,46.0,37.0,30.06,SW,225,5.0,14.0,70,0.00,,,0.00,,2013-12-28 19:42:00,
2013-12-28 14:52:00,47.0,38.0,30.07,SW,215,4.0,11.0,70,0.00,,,0.00,,2013-12-28 19:52:00,
2013-12-28 15:11:00,48.0,38.0,30.06,SW,234,5.0,12.0,69,0.00,,,0.00,,2013-12-28 20:11:00,
2013-12-28 15:22:00,48.0,38.0,30.07,SW,224,7.0,14.0,68,0.00,,,0.00,,2013-12-28 20:22:00,
2013-12-28 15:42:00,48.0,38.0,30.06,South,172,3.0,13.0,67,0.00,,,0.00,,2013-12-28 20:42:00,
2013-12-28 15:52:00,49.0,39.0,30.05,SW,221,4.0,8.0,67,0.00,,,0.00,,2013-12-28 20:52:00,
2013-12-28 16:22:00,47.0,38.0,30.05,SSW,195,2.0,7.0,70,0.00,,,0.00,,2013-12-28 21:22:00,
2013-12-28 16:43:00,47.0,38.0,30.05,SW,225,2.0,7.0,71,0.00,,,0.00,,2013-12-28 21:43:00,
2013-12-28 16:53:00,46.0,37.0,30.05,SSW,194,2.0,7.0,72,0.00,,,0.00,,2013-12-28 21:53:00,
2013-12-28 17:13:00,44.0,36.0,30.05,SSW,209,1.0,4.0,74,0.00,,,0.00,,2013-12-28 22:13:00,
2013-12-28 17:23:00,43.0,36.0,30.04,South,189,2.0,7.0,75,0.00,,,0.00,,2013-12-28 22:23:00,
2013-12-28 17:52:00,41.0,35.0,30.05,South,188,3.0,7.0,78,0.00,,,0.00,,2013-12-28 22:52:00,
2013-12-28 18:12:00,41.0,35.0,30.04,SSW,208,4.0,7.0,80,0.00,,,0.00,,2013-12-28 23:12:00,
2013-12-28 18:22:00,41.0,35.0,30.03,SW,232,4.0,8.0,79,0.00,,,0.00,,2013-12-28 23:22:00,
2013-12-28 18:42:00,40.0,34.0,30.04,South,190,4.0,7.0,80,0.00,,,0.00,,2013-12-28 23:42:00,
2013-12-28 18:53:00,39.0,34.0,30.04,SSW,201,4.0,8.0,81,0.00,,,0.00,,2013-12-28 23:53:00,
2013-12-28 19:11:00,38.0,33.0,30.04,SSW,200,3.0,7.0,82,0.00,,,0.00,,2013-12-29 00:11:00,
2013-12-28 19:22:00,38.0,33.0,30.03,SSW,192,3.0,7.0,83,0.00,,,0.00,,2013-12-29 00:22:00,
2013-12-28 19:42:00,38.0,33.0,30.03,SSW,212,5.0,7.0,83,0.00,,,0.00,,2013-12-29 00:42:00,
2013-12-28 19:52:00,38.0,34.0,30.03,SSW,201,5.0,9.0,84,0.00,,,0.00,,2013-12-29 00:52:00,
2013-12-28 20:11:00,37.0,33.0,30.03,SSW,200,4.0,7.0,84,0.00,,,0.00,,2013-12-29 01:11:00,
2013-12-28 20:22:00,37.0,33.0,30.03,South,177,2.0,8.0,84,0.00,,,0.00,,2013-12-29 01:22:00,
2013-12-28 20:42:00,37.0,33.0,30.01,South,188,3.0,5.0,85,0.00,,,0.00,,2013-12-29 01:42:00,
2013-12-28 20:52:00,37.0,33.0,30.01,SSW,209,6.0,11.0,84,0.00,,,0.00,,2013-12-29 01:52:00,
2013-12-28 21:11:00,37.0,33.0,30.01,SSW,193,5.0,13.0,84,0.00,,,0.00,,2013-12-29 02:11:00,
2013-12-28 21:22:00,37.0,32.0,30.00,SW,221,6.0,11.0,83,0.00,,,0.00,,2013-12-29 02:22:00,
2013-12-28 21:42:00,38.0,33.0,29.99,SSW,195,5.0,9.0,83,0.00,,,0.00,,2013-12-29 02:42:00,
2013-12-28 21:52:00,38.0,33.0,29.98,SSE,164,5.0,9.0,81,0.00,,,0.00,,2013-12-29 02:52:00,
2013-12-28 22:22:00,37.0,32.0,29.97,SW,225,6.0,10.0,82,0.00,,,0.00,,2013-12-29 03:22:00,
2013-12-28 22:43:00,37.0,32.0,29.97,SSW,196,4.0,7.0,82,0.00,,,0.00,,2013-12-29 03:43:00,
2013-12-28 22:53:00,37.0,32.0,29.96,SSW,196,3.0,7.0,82,0.00,,,0.00,,2013-12-29 03:53:00,
2013-12-28 23:03:00,-999.0,-99.9,29.95,SSW,205,1.0,5.0,-999,0.00,,,0.00,,2013-12-29 04:03:00,
2013-12-28 23:13:00,37.0,32.0,29.95,SSW,205,1.0,5.0,82,0.00,,,0.00,,2013-12-29 04:13:00,
2013-12-28 23:22:00,37.0,32.0,29.96,South,189,2.0,5.0,82,0.00,,,0.00,,2013-12-29 04:22:00,
2013-12-28 23:42:00,37.0,32.0,29.95,SSW,213,5.0,8.0,82,0.00,,,0.00,,2013-12-29 04:42:00,
2013-12-28 23:53:00,37.0,32.0,29.94,SSW,201,3.0,7.0,82,0.00,,,0.00,,2013-12-29 04:53:00,